Tracking 23757 objects as of 26-Oct-2021
HD Live streaming from Space Station
objects crossing your sky now

IRIDIUM 33 DEB

Track IRIDIUM 33 DEB now!
10-day predictions


NORAD ID: 38023
Int'l Code: 1997-051YK
Perigee: 666.2 km
Apogee: 813.6 km
Inclination: 86.4 °
Period: 99.5 minutes
Semi major axis: 7110 km
RCS: 0.0057 m2 (small)
Launch date: September 14, 1997
Source: United States (US)
Launch site: TYURATAM MISSILE AND SPACE COMPLEX (TTMTR)

Note: This is SATELLITE DEBRIS
aabbcc
Your satellite tracking list
Your tracking list is empty




NASA's NSSDC Master Catalog

Two Line Element Set (TLE):
1 38023U 97051YK  21296.53119851  .00005667  00000-0  14270-2 0  9991
2 38023  86.4090  28.5333 0103617 311.0412  48.1869 14.47818643488179
Source of the keplerian elements: AFSPC